| time (UTC) | temp C | wind direction | speed KPH | gust KPH | rain 1hr cm | rain 24hr cm | rain mn cm | humidity % | barometer mb |
| 20260505153005 | 12 | 246 | 0.0 | 3.2 | 0.00 | 0.00 | 0.00 | 85 | 1015.6 |
| 20260505152504 | 12 | 246 | 0.0 | 3.2 | 0.00 | 0.00 | 0.00 | 85 | 1015.6 |
| 20260505152006 | 12 | 0 | 0.0 | 0.0 | 0.00 | 0.00 | 0.00 | 85 | 1015.6 |
| 20260505151504 | 12 | 0 | 0.0 | 0.0 | 0.00 | 0.00 | 0.00 | 85 | 1015.5 |
| 20260505151005 | 12 | 0 | 0.0 | 0.0 | 0.00 | 0.00 | 0.00 | 85 | 1015.4 |
| 20260505150504 | 12 | 0 | 0.0 | 0.0 | 0.00 | 0.00 | 0.00 | 84 | 1015.4 |
| 20260505140504 | 12 | 0 | 0.0 | 0.0 | 0.00 | 0.00 | 0.00 | 85 | 1014.8 |
| 20260505125005 | 12 | 0 | 0.0 | 0.0 | 0.00 | 0.00 | 0.00 | 86 | 1014.1 |
| 20260505124504 | 12 | 0 | 0.0 | 0.0 | 0.00 | 0.00 | 0.00 | 86 | 1014.2 |
| 20260505124005 | 12 | 247 | 0.0 | 3.2 | 0.00 | 0.00 | 0.00 | 86 | 1014.1 |
| 20260505123504 | 12 | 247 | 0.0 | 3.2 | 0.00 | 0.00 | 0.00 | 86 | 1014.1 |
| 20260505123005 | 12 | 246 | 0.0 | 1.6 | 0.00 | 0.00 | 0.00 | 86 | 1014.0 |
| 20260505122006 | 12 | 0 | 0.0 | 0.0 | 0.00 | 0.00 | 0.00 | 86 | 1014.0 |
| 20260505121504 | 12 | 0 | 0.0 | 0.0 | 0.00 | 0.00 | 0.00 | 86 | 1014.0 |
| 20260505120504 | 12 | 0 | 0.0 | 0.0 | 0.00 | 0.00 | 0.00 | 86 | 1014.0 |
| 20260505120006 | 12 | 0 | 0.0 | 0.0 | 0.00 | 0.00 | 0.00 | 86 | 1014.0 |
| 20260505115504 | 12 | 0 | 0.0 | 0.0 | 0.00 | 0.00 | 0.00 | 86 | 1013.9 |
| 20260505115005 | 12 | 0 | 0.0 | 0.0 | 0.00 | 0.00 | 0.00 | 86 | 1013.9 |
| 20260505114504 | 12 | 0 | 0.0 | 0.0 | 0.00 | 0.00 | 0.00 | 86 | 1013.9 |
| 20260505114006 | 12 | 0 | 0.0 | 0.0 | 0.00 | 0.00 | 0.00 | 86 | 1014.0 |
| 20260505113504 | 12 | 0 | 0.0 | 0.0 | 0.00 | 0.00 | 0.00 | 86 | 1013.9 |
| 20260505113006 | 12 | 0 | 0.0 | 0.0 | 0.00 | 0.00 | 0.00 | 86 | 1013.9 |
| 20260505112504 | 12 | 0 | 0.0 | 0.0 | 0.00 | 0.00 | 0.00 | 86 | 1013.8 |
| 20260505112005 | 12 | 246 | 0.0 | 3.2 | 0.00 | 0.00 | 0.00 | 86 | 1013.9 |
| 20260505111503 | 12 | 246 | 0.0 | 8.0 | 0.00 | 0.00 | 0.00 | 86 | 1013.8 |
| 20260505111007 | 12 | 246 | 0.0 | 8.0 | 0.00 | 0.00 | 0.00 | 86 | 1013.8 |
| 20260505110504 | 12 | 246 | 0.0 | 6.4 | 0.00 | 0.00 | 0.00 | 86 | 1013.8 |
| 20260505102004 | 12 | 0 | 0.0 | 0.0 | 0.00 | 0.00 | 0.00 | 87 | 1013.5 |
| 20260505101504 | 12 | 0 | 0.0 | 0.0 | 0.00 | 0.00 | 0.00 | 87 | 1013.4 |
| 20260505101004 | 12 | 0 | 0.0 | 0.0 | 0.00 | 0.00 | 0.00 | 87 | 1013.4 |
| 20260505100503 | 12 | 0 | 0.0 | 0.0 | 0.00 | 0.00 | 0.00 | 87 | 1013.3 |
| 20260505100003 | 12 | 0 | 0.0 | 0.0 | 0.00 | 0.00 | 0.00 | 87 | 1013.4 |
| 20260505095504 | 12 | 0 | 0.0 | 0.0 | 0.00 | 0.00 | 0.00 | 87 | 1013.3 |
| 20260505095005 | 12 | 245 | 0.0 | 6.4 | 0.00 | 0.00 | 0.00 | 87 | 1013.3 |
| 20260505094503 | 12 | 245 | 0.0 | 6.4 | 0.00 | 0.00 | 0.00 | 87 | 1013.2 |
| 20260505094004 | 12 | 245 | 0.0 | 4.8 | 0.00 | 0.00 | 0.00 | 88 | 1013.2 |
| 20260505093005 | 12 | 245 | 0.0 | 1.6 | 0.00 | 0.00 | 0.00 | 88 | 1013.1 |
| 20260505092503 | 11 | 245 | 0.0 | 1.6 | 0.00 | 0.00 | 0.00 | 88 | 1013.1 |
| 20260505092005 | 11 | 245 | 0.0 | 1.6 | 0.00 | 0.00 | 0.00 | 88 | 1013.1 |
| 20260505091005 | 11 | 245 | 0.0 | 1.6 | 0.00 | 0.00 | 0.00 | 88 | 1013.0 |
| 20260505090503 | 11 | 0 | 0.0 | 0.0 | 0.00 | 0.00 | 0.00 | 88 | 1013.0 |
| 20260505085504 | 11 | 0 | 0.0 | 0.0 | 0.00 | 0.00 | 0.00 | 88 | 1012.9 |
| 20260505085004 | 11 | 0 | 0.0 | 0.0 | 0.00 | 0.00 | 0.00 | 87 | 1012.9 |
| 20260505084503 | 11 | 0 | 0.0 | 0.0 | 0.00 | 0.00 | 0.00 | 87 | 1013.0 |
| 20260505084005 | 11 | 0 | 0.0 | 0.0 | 0.00 | 0.00 | 0.00 | 87 | 1013.0 |
| 20260505083004 | 12 | 0 | 0.0 | 0.0 | 0.00 | 0.00 | 0.00 | 86 | 1012.9 |
| 20260505082504 | 12 | 0 | 0.0 | 0.0 | 0.00 | 0.00 | 0.00 | 86 | 1012.9 |
| 20260505082004 | 12 | 0 | 0.0 | 0.0 | 0.00 | 0.00 | 0.00 | 86 | 1012.9 |
| 20260505081504 | 12 | 0 | 0.0 | 0.0 | 0.00 | 0.00 | 0.00 | 86 | 1012.9 |
| 20260505081004 | 12 | 0 | 0.0 | 0.0 | 0.00 | 0.00 | 0.00 | 86 | 1012.8 |
| 20260505080504 | 12 | 0 | 0.0 | 0.0 | 0.00 | 0.00 | 0.00 | 86 | 1012.8 |
| 20260505080004 | 12 | 0 | 0.0 | 0.0 | 0.00 | 0.00 | 0.00 | 86 | 1012.7 |
| 20260505075504 | 12 | 0 | 0.0 | 0.0 | 0.00 | 0.00 | 0.00 | 85 | 1012.8 |
| 20260505075005 | 12 | 0 | 0.0 | 0.0 | 0.00 | 0.00 | 0.00 | 85 | 1012.8 |
| 20260505074505 | 12 | 0 | 0.0 | 0.0 | 0.00 | 0.00 | 0.00 | 85 | 1012.7 |
| 20260505074006 | 12 | 0 | 0.0 | 0.0 | 0.00 | 0.00 | 0.00 | 85 | 1012.6 |
| 20260505073505 | 12 | 0 | 0.0 | 0.0 | 0.00 | 0.00 | 0.00 | 84 | 1012.6 |
| 20260505073006 | 12 | 245 | 0.0 | 1.6 | 0.00 | 0.00 | 0.00 | 84 | 1012.6 |
| 20260505072505 | 12 | 245 | 0.0 | 3.2 | 0.00 | 0.00 | 0.00 | 85 | 1012.5 |
| 20260505071505 | 12 | 245 | 0.0 | 3.2 | 0.00 | 0.00 | 0.00 | 85 | 1012.4 |
| 20260505071006 | 12 | 0 | 0.0 | 0.0 | 0.00 | 0.00 | 0.00 | 85 | 1012.4 |
| 20260505070505 | 12 | 0 | 0.0 | 0.0 | 0.00 | 0.00 | 0.00 | 85 | 1012.3 |
| 20260505070011 | 12 | 0 | 0.0 | 0.0 | 0.00 | 0.00 | 0.00 | 85 | 1012.2 |
| 20260505065505 | 12 | 0 | 0.0 | 0.0 | 0.00 | 0.00 | 0.00 | 85 | 1012.2 |
| 20260505064505 | 13 | 0 | 0.0 | 0.0 | 0.00 | 0.00 | 0.00 | 84 | 1012.1 |
| 20260505064006 | 13 | 0 | 0.0 | 0.0 | 0.00 | 0.00 | 0.00 | 83 | 1011.9 |
| 20260505063505 | 13 | 0 | 0.0 | 0.0 | 0.00 | 0.00 | 0.00 | 83 | 1011.9 |
| 20260505062505 | 13 | 0 | 0.0 | 0.0 | 0.00 | 0.00 | 0.00 | 81 | 1011.9 |
| 20260505062007 | 13 | 0 | 0.0 | 0.0 | 0.00 | 0.00 | 0.00 | 81 | 1011.9 |
| 20260505061505 | 13 | 0 | 0.0 | 0.0 | 0.00 | 0.00 | 0.00 | 81 | 1011.8 |
| 20260505061005 | 13 | 0 | 0.0 | 0.0 | 0.00 | 0.00 | 0.00 | 80 | 1011.7 |
| 20260505060505 | 13 | 0 | 0.0 | 0.0 | 0.00 | 0.00 | 0.00 | 80 | 1011.6 |
| 20260505055505 | 14 | 0 | 0.0 | 0.0 | 0.00 | 0.00 | 0.00 | 79 | 1011.6 |
| 20260505055006 | 14 | 0 | 0.0 | 0.0 | 0.00 | 0.00 | 0.00 | 79 | 1011.6 |
| 20260505054505 | 14 | 0 | 0.0 | 0.0 | 0.00 | 0.00 | 0.00 | 78 | 1011.5 |
| 20260505053505 | 15 | 0 | 0.0 | 0.0 | 0.00 | 0.00 | 0.00 | 77 | 1011.4 |
| 20260505052505 | 15 | 0 | 0.0 | 0.0 | 0.00 | 0.00 | 0.00 | 76 | 1011.4 |
| 20260505052005 | 15 | 0 | 0.0 | 0.0 | 0.00 | 0.00 | 0.00 | 76 | 1011.3 |
| 20260505051504 | 15 | 245 | 0.0 | 1.6 | 0.00 | 0.00 | 0.00 | 75 | 1011.3 |
| 20260505051005 | 15 | 245 | 0.0 | 3.2 | 0.00 | 0.00 | 0.00 | 75 | 1011.2 |
| 20260505050505 | 15 | 245 | 0.0 | 4.8 | 0.00 | 0.00 | 0.00 | 74 | 1011.2 |
| 20260505041505 | 17 | 0 | 0.0 | 0.0 | 0.00 | 0.00 | 0.00 | 70 | 1010.6 |
| 20260505040505 | 17 | 0 | 0.0 | 0.0 | 0.00 | 0.00 | 0.00 | 69 | 1010.4 |
| 20260505035505 | 17 | 257 | 0.0 | 1.6 | 0.00 | 0.00 | 0.00 | 68 | 1010.2 |
| 20260505035005 | 18 | 257 | 0.0 | 1.6 | 0.00 | 0.00 | 0.00 | 67 | 1010.1 |
| 20260505034505 | 18 | 258 | 0.0 | 4.8 | 0.00 | 0.00 | 0.00 | 67 | 1010.1 |
| 20260505034006 | 18 | 258 | 0.0 | 8.0 | 0.00 | 0.00 | 0.00 | 66 | 1010.0 |
| 20260505033505 | 18 | 258 | 0.0 | 8.0 | 0.00 | 0.00 | 0.00 | 66 | 1009.9 |
| 20260505033006 | 18 | 258 | 0.0 | 3.2 | 0.00 | 0.00 | 0.00 | 65 | 1009.9 |
| 20260505032005 | 19 | 258 | 0.0 | 6.4 | 0.00 | 0.00 | 0.00 | 63 | 1009.7 |
| 20260505031505 | 20 | 251 | 0.0 | 4.8 | 0.00 | 0.00 | 0.00 | 63 | 1009.7 |
| 20260505031006 | 20 | 250 | 0.0 | 4.8 | 0.00 | 0.00 | 0.00 | 62 | 1009.6 |
| 20260505025505 | 21 | 0 | 0.0 | 0.0 | 0.00 | 0.00 | 0.00 | 59 | 1009.4 |
| 20260505024505 | 21 | 0 | 0.0 | 0.0 | 0.00 | 0.00 | 0.00 | 57 | 1009.3 |
| 20260505024005 | 21 | 0 | 0.0 | 0.0 | 0.00 | 0.00 | 0.00 | 57 | 1009.3 |
| 20260505023504 | 21 | 0 | 0.0 | 0.0 | 0.00 | 0.00 | 0.00 | 56 | 1009.3 |
| 20260505023006 | 22 | 0 | 0.0 | 0.0 | 0.00 | 0.00 | 0.00 | 55 | 1009.3 |
| 20260505022504 | 22 | 0 | 0.0 | 0.0 | 0.00 | 0.00 | 0.00 | 55 | 1009.3 |
| 20260505022005 | 22 | 242 | 0.0 | 1.6 | 0.00 | 0.00 | 0.00 | 55 | 1009.2 |
| 20260505021505 | 22 | 242 | 0.0 | 1.6 | 0.00 | 0.00 | 0.00 | 55 | 1009.2 |
| 20260505021006 | 23 | 0 | 0.0 | 0.0 | 0.00 | 0.00 | 0.00 | 55 | 1009.2 |
| 20260505020005 | 23 | 242 | 0.0 | 1.6 | 0.00 | 0.00 | 0.00 | 54 | 1009.1 |
| 20260505015505 | 23 | 242 | 0.0 | 1.6 | 0.00 | 0.00 | 0.00 | 53 | 1009.1 |
| 20260505015005 | 23 | 242 | 0.0 | 1.6 | 0.00 | 0.00 | 0.00 | 53 | 1009.1 |
| 20260505014505 | 23 | 242 | 0.0 | 4.8 | 0.00 | 0.00 | 0.00 | 53 | 1009.1 |
| 20260505014006 | 23 | 242 | 0.0 | 4.8 | 0.00 | 0.00 | 0.00 | 52 | 1009.1 |
| 20260505013505 | 23 | 242 | 0.0 | 1.6 | 0.00 | 0.00 | 0.00 | 50 | 1009.2 |
| 20260505012505 | 23 | 242 | 0.0 | 3.2 | 0.00 | 0.00 | 0.00 | 50 | 1009.1 |
| 20260505012006 | 24 | 242 | 0.0 | 4.8 | 0.00 | 0.00 | 0.00 | 49 | 1009.2 |
| 20260505011505 | 24 | 240 | 0.0 | 4.8 | 0.00 | 0.00 | 0.00 | 48 | 1009.3 |
| 20260505011005 | 24 | 234 | 0.0 | 3.2 | 0.00 | 0.00 | 0.00 | 47 | 1009.2 |
| 20260505010505 | 24 | 237 | 0.0 | 8.0 | 0.00 | 0.00 | 0.00 | 46 | 1009.3 |
| 20260505010005 | 24 | 240 | 0.0 | 8.0 | 0.00 | 0.00 | 0.00 | 47 | 1009.3 |
| 20260505005005 | 24 | 239 | 0.0 | 4.8 | 0.00 | 0.00 | 0.00 | 48 | 1009.3 |
| 20260505004505 | 24 | 0 | 0.0 | 0.0 | 0.00 | 0.00 | 0.00 | 46 | 1009.3 |
| 20260505004005 | 25 | 0 | 0.0 | 0.0 | 0.00 | 0.00 | 0.00 | 45 | 1009.3 |
| 20260505002505 | 25 | 238 | 0.0 | 3.2 | 0.00 | 0.00 | 0.00 | 41 | 1009.2 |
| 20260505002005 | 25 | 238 | 0.0 | 3.2 | 0.00 | 0.00 | 0.00 | 38 | 1009.2 |
| 20260505001505 | 25 | 238 | 0.0 | 3.2 | 0.00 | 0.00 | 0.00 | 39 | 1009.3 |
| 20260505001005 | 26 | 238 | 0.0 | 1.6 | 0.00 | 0.00 | 0.00 | 37 | 1009.3 |
| 20260505000505 | 26 | 0 | 0.0 | 0.0 | 0.00 | 0.00 | 0.00 | 36 | 1009.3 |
| 20260504235505 | 26 | 238 | 0.0 | 4.8 | 0.00 | 0.00 | 0.00 | 36 | 1009.3 |
| 20260504235005 | 27 | 239 | 0.0 | 6.4 | 0.00 | 0.00 | 0.00 | 35 | 1009.3 |
| 20260504234505 | 27 | 240 | 0.0 | 6.4 | 0.00 | 0.00 | 0.00 | 35 | 1009.3 |
| 20260504233504 | 27 | 240 | 0.0 | 3.2 | 0.00 | 0.00 | 0.00 | 36 | 1009.4 |
| 20260504233005 | 27 | 240 | 0.0 | 3.2 | 0.00 | 0.00 | 0.00 | 37 | 1009.4 |
| 20260504232504 | 27 | 0 | 0.0 | 0.0 | 0.00 | 0.00 | 0.00 | 35 | 1009.3 |
| 20260504232005 | 27 | 0 | 0.0 | 0.0 | 0.00 | 0.00 | 0.00 | 34 | 1009.3 |
| 20260504231504 | 27 | 0 | 0.0 | 0.0 | 0.00 | 0.00 | 0.00 | 32 | 1009.4 |
| 20260504231006 | 27 | 237 | 0.0 | 1.6 | 0.00 | 0.00 | 0.00 | 34 | 1009.4 |
| 20260504230504 | 27 | 237 | 0.0 | 1.6 | 0.00 | 0.00 | 0.00 | 31 | 1009.5 |
| 20260504230005 | 27 | 237 | 0.0 | 1.6 | 0.00 | 0.00 | 0.00 | 33 | 1009.6 |
| 20260504225504 | 27 | 237 | 0.0 | 1.6 | 0.00 | 0.00 | 0.00 | 36 | 1009.7 |
| 20260504225005 | 27 | 237 | 0.0 | 6.4 | 0.00 | 0.00 | 0.00 | 34 | 1009.7 |
| 20260504224505 | 27 | 237 | 0.0 | 6.4 | 0.00 | 0.00 | 0.00 | 36 | 1009.8 |
| 20260504224006 | 27 | 238 | 0.0 | 6.4 | 0.00 | 0.00 | 0.00 | 36 | 1009.9 |
| 20260504223504 | 27 | 238 | 0.0 | 6.4 | 0.00 | 0.00 | 0.00 | 35 | 1009.9 |
| 20260504222504 | 27 | 241 | 0.0 | 3.2 | 0.00 | 0.00 | 0.00 | 36 | 1009.9 |
| 20260504221005 | 26 | 248 | 0.0 | 6.4 | 0.00 | 0.00 | 0.00 | 36 | 1010.1 |
| 20260504220005 | 26 | 240 | 0.0 | 8.0 | 0.00 | 0.00 | 0.00 | 40 | 1010.1 |
| 20260504215504 | 26 | 237 | 0.0 | 8.0 | 0.00 | 0.00 | 0.00 | 39 | 1010.1 |
| 20260504215005 | 26 | 221 | 0.0 | 4.8 | 0.00 | 0.00 | 0.00 | 40 | 1010.2 |
| 20260504214504 | 26 | 242 | 0.0 | 4.8 | 0.00 | 0.00 | 0.00 | 41 | 1010.2 |
| 20260504213504 | 26 | 245 | 0.0 | 6.4 | 0.00 | 0.00 | 0.00 | 40 | 1010.2 |
| 20260504213006 | 26 | 240 | 0.0 | 6.4 | 0.00 | 0.00 | 0.00 | 40 | 1010.2 |
| 20260504212505 | 26 | 234 | 0.0 | 6.4 | 0.00 | 0.00 | 0.00 | 41 | 1010.2 |
| 20260504212007 | 26 | 231 | 0.0 | 1.6 | 0.00 | 0.00 | 0.00 | 44 | 1010.3 |
| 20260504211504 | 26 | 231 | 0.0 | 1.6 | 0.00 | 0.00 | 0.00 | 42 | 1010.3 |
| 20260504211006 | 26 | 0 | 0.0 | 0.0 | 0.00 | 0.00 | 0.00 | 41 | 1010.3 |
| 20260504210504 | 26 | 222 | 0.0 | 3.2 | 0.00 | 0.00 | 0.00 | 43 | 1010.3 |
| 20260504210006 | 26 | 221 | 0.0 | 3.2 | 0.00 | 0.00 | 0.00 | 45 | 1010.4 |
| 20260504205504 | 26 | 220 | 0.0 | 3.2 | 0.00 | 0.00 | 0.00 | 43 | 1010.5 |
| 20260504205006 | 26 | 227 | 0.0 | 3.2 | 0.00 | 0.00 | 0.00 | 44 | 1010.5 |
| 20260504204504 | 25 | 237 | 0.0 | 3.2 | 0.00 | 0.00 | 0.00 | 45 | 1010.5 |
| 20260504204005 | 25 | 240 | 0.0 | 1.6 | 0.00 | 0.00 | 0.00 | 43 | 1010.4 |
| 20260504203505 | 25 | 240 | 0.0 | 1.6 | 0.00 | 0.00 | 0.00 | 42 | 1010.4 |
| 20260504203005 | 25 | 231 | 0.0 | 4.8 | 0.00 | 0.00 | 0.00 | 44 | 1010.4 |
| 20260504202504 | 25 | 231 | 0.0 | 4.8 | 0.00 | 0.00 | 0.00 | 43 | 1010.4 |
| 20260504202004 | 25 | 231 | 0.0 | 1.6 | 0.00 | 0.00 | 0.00 | 44 | 1010.4 |
| 20260504201504 | 25 | 231 | 0.0 | 3.2 | 0.00 | 0.00 | 0.00 | 45 | 1010.4 |
| 20260504201005 | 25 | 229 | 0.0 | 6.4 | 0.00 | 0.00 | 0.00 | 43 | 1010.5 |
| 20260504200005 | 25 | 226 | 0.0 | 8.0 | 0.00 | 0.00 | 0.00 | 44 | 1010.5 |
| 20260504195504 | 25 | 219 | 0.0 | 3.2 | 0.00 | 0.00 | 0.00 | 44 | 1010.6 |
| 20260504195006 | 25 | 220 | 0.0 | 1.6 | 0.00 | 0.00 | 0.00 | 44 | 1010.7 |
| 20260504194504 | 24 | 228 | 0.0 | 1.6 | 0.00 | 0.00 | 0.00 | 44 | 1010.6 |
| 20260504193505 | 25 | 227 | 0.0 | 4.8 | 0.00 | 0.00 | 0.00 | 46 | 1010.6 |
| 20260504193006 | 25 | 227 | 0.0 | 1.6 | 0.00 | 0.00 | 0.00 | 46 | 1010.7 |
| 20260504192504 | 25 | 227 | 0.0 | 1.6 | 0.00 | 0.00 | 0.00 | 48 | 1010.7 |
| 20260504192006 | 25 | 223 | 0.0 | 6.4 | 0.00 | 0.00 | 0.00 | 49 | 1010.8 |
| 20260504191504 | 24 | 223 | 0.0 | 6.4 | 0.00 | 0.00 | 0.00 | 48 | 1010.7 |
| 20260504191006 | 24 | 235 | 0.0 | 3.2 | 0.00 | 0.00 | 0.00 | 52 | 1010.8 |
| 20260504190504 | 24 | 234 | 0.0 | 3.2 | 0.00 | 0.00 | 0.00 | 52 | 1010.7 |
| 20260504190005 | 24 | 233 | 0.0 | 4.8 | 0.00 | 0.00 | 0.00 | 51 | 1010.8 |
| 20260504185504 | 23 | 232 | 0.0 | 4.8 | 0.00 | 0.00 | 0.00 | 52 | 1010.8 |
| 20260504185005 | 23 | 234 | 0.0 | 4.8 | 0.00 | 0.00 | 0.00 | 51 | 1010.9 |
| 20260504184504 | 23 | 241 | 0.0 | 1.6 | 0.00 | 0.00 | 0.00 | 51 | 1010.8 |
| 20260504184006 | 23 | 241 | 0.0 | 1.6 | 0.00 | 0.00 | 0.00 | 53 | 1010.9 |
| 20260504183504 | 23 | 0 | 0.0 | 0.0 | 0.00 | 0.00 | 0.00 | 51 | 1010.9 |
| 20260504183006 | 23 | 238 | 0.0 | 4.8 | 0.00 | 0.00 | 0.00 | 51 | 1011.0 |
| 20260504181505 | 23 | 238 | 0.0 | 3.2 | 0.00 | 0.00 | 0.00 | 54 | 1011.1 |
| 20260504181006 | 23 | 0 | 0.0 | 0.0 | 0.00 | 0.00 | 0.00 | 52 | 1011.1 |
| 20260504180504 | 23 | 203 | 0.0 | 1.6 | 0.00 | 0.00 | 0.00 | 53 | 1011.1 |
| 20260504180006 | 22 | 203 | 0.0 | 1.6 | 0.00 | 0.00 | 0.00 | 54 | 1011.1 |
| 20260504175504 | 22 | 203 | 0.0 | 3.2 | 0.00 | 0.00 | 0.00 | 55 | 1011.0 |
| 20260504175006 | 22 | 203 | 0.0 | 3.2 | 0.00 | 0.00 | 0.00 | 54 | 1011.0 |
| 20260504174504 | 22 | 201 | 0.0 | 1.6 | 0.00 | 0.00 | 0.00 | 54 | 1011.0 |
| 20260504174004 | 22 | 201 | 0.0 | 1.6 | 0.00 | 0.00 | 0.00 | 55 | 1011.0 |
| 20260504173504 | 22 | 0 | 0.0 | 0.0 | 0.00 | 0.00 | 0.00 | 56 | 1011.0 |
| 20260504173005 | 22 | 0 | 0.0 | 0.0 | 0.00 | 0.00 | 0.00 | 55 | 1010.9 |
| 20260504172505 | 21 | 0 | 0.0 | 0.0 | 0.00 | 0.00 | 0.00 | 58 | 1011.0 |
| 20260504172005 | 21 | 0 | 0.0 | 0.0 | 0.00 | 0.00 | 0.00 | 57 | 1011.0 |
| 20260504171504 | 21 | 0 | 0.0 | 0.0 | 0.00 | 0.00 | 0.00 | 57 | 1010.9 |
| 20260504171006 | 21 | 0 | 0.0 | 0.0 | 0.00 | 0.00 | 0.00 | 61 | 1010.9 |
| 20260504170505 | 21 | 0 | 0.0 | 0.0 | 0.00 | 0.00 | 0.00 | 60 | 1010.9 |